Location: Im Fang
(46.6019°N, 7.2397°E)
Time: 14:27:06
(UTC+00:00)

STARLINK 1060 - Pass Details

Date: 08 December 2019
Orbit: 468 x 470 km, 53.0° (Epoch: 23 January)

Event Time Altitude Azimuth Distance (km) Brightness Sun altitude
Exits shadow 05:33:19 27° 267° (W) 900 4.2 -14.5°
Maximum altitude 05:34:40 39° 219° (SW) 692 3.9 -14.3°
Drops below altitude 10° 05:37:59 10° 150° (SSE) 1,574 6.7 -13.8°
Sets 05:40:11 0° 142° (SE) 2,445 8.0 -13.4°
